SKW4727 KDEN-KOKC

Flight info

Callsign SKW4727
Flight time 1h 6m
Altitude 33000
Route EPKEE7 DUUZE ROLLS CAMET3
Aircraft E75L/M-SDE3GILORVW/S

Departure

Time 2026-05-07 04:01
Airport Denver International Airport (KDEN)

Arrival

Time 2026-05-07 05:08
Airport OKC Will Rogers World Airport (KOKC)
Time Latitude Longitude Altitude Speed Heading
2026-05-07 03:34 39.85800 -104.66912 5382 ft 0 kts
2026-05-07 03:49 39.85784 -104.66912 5378 ft 4 kts
2026-05-07 03:50 39.85757 -104.66913 5382 ft 4 kts
2026-05-07 03:50 39.85730 -104.66913 5383 ft 4 kts
2026-05-07 03:50 39.85716 -104.66913 5384 ft 0 kts
2026-05-07 03:53 39.85718 -104.66913 5384 ft 0 kts
2026-05-07 03:53 39.85722 -104.66911 5382 ft 2 kts 20°
2026-05-07 03:54 39.85728 -104.66884 5384 ft 6 kts 105°
2026-05-07 03:54 39.85695 -104.66823 5384 ft 9 kts 136°
2026-05-07 03:54 39.85655 -104.66758 5384 ft 8 kts 107°
2026-05-07 03:54 39.85658 -104.66680 5384 ft 9 kts 85°
2026-05-07 03:55 39.85660 -104.66621 5384 ft 5 kts 89°
2026-05-07 03:55 39.85663 -104.66561 5382 ft 9 kts 74°
2026-05-07 03:55 39.85679 -104.66462 5384 ft 12 kts 90°
2026-05-07 03:55 39.85678 -104.66361 5389 ft 9 kts 90°
2026-05-07 03:56 39.85678 -104.66298 5393 ft 8 kts 88°
2026-05-07 03:56 39.85717 -104.66237 5393 ft 10 kts
2026-05-07 03:56 39.85799 -104.66236 5393 ft 15 kts
2026-05-07 03:56 39.85912 -104.66234 5390 ft 18 kts
2026-05-07 03:57 39.86041 -104.66235 5387 ft 21 kts 360°
2026-05-07 03:57 39.86206 -104.66232 5383 ft 24 kts 360°
2026-05-07 03:57 39.86372 -104.66230 5379 ft 19 kts
2026-05-07 03:57 39.86487 -104.66227 5383 ft 16 kts
2026-05-07 03:58 39.86604 -104.66226 5382 ft 18 kts
2026-05-07 03:58 39.86747 -104.66224 5376 ft 22 kts
2026-05-07 03:58 39.86915 -104.66223 5370 ft 26 kts
2026-05-07 03:58 39.87103 -104.66219 5367 ft 28 kts
2026-05-07 03:59 39.87308 -104.66217 5363 ft 30 kts 359°
2026-05-07 03:59 39.87491 -104.66216 5362 ft 18 kts
2026-05-07 03:59 39.87618 -104.66211 5359 ft 19 kts
2026-05-07 03:59 39.87740 -104.66202 5358 ft 14 kts 27°
2026-05-07 04:00 39.87754 -104.66078 5355 ft 16 kts 92°
2026-05-07 04:00 39.87751 -104.65920 5353 ft 18 kts 91°
2026-05-07 04:00 39.87751 -104.65763 5352 ft 17 kts 90°
2026-05-07 04:00 39.87749 -104.65596 5351 ft 19 kts 91°
2026-05-07 04:01 39.87748 -104.65350 5353 ft 42 kts 91°
2026-05-07 04:01 39.87740 -104.64640 5339 ft 115 kts 90°
2026-05-07 04:01 39.87733 -104.63309 5404 ft 171 kts 94°
2026-05-07 04:01 39.87713 -104.61694 6232 ft 181 kts 94°
2026-05-07 04:02 39.87685 -104.60065 7036 ft 185 kts 98°
2026-05-07 04:02 39.87334 -104.58412 7517 ft 197 kts 113°
2026-05-07 04:02 39.86765 -104.56704 7997 ft 212 kts 115°
2026-05-07 04:02 39.86144 -104.54894 8531 ft 227 kts 113°
2026-05-07 04:03 39.85478 -104.52903 8917 ft 254 kts 112°
2026-05-07 04:03 39.84749 -104.50694 9399 ft 278 kts 111°
2026-05-07 04:03 39.83958 -104.48287 9914 ft 301 kts 111°
2026-05-07 04:03 39.83117 -104.45733 10389 ft 316 kts 111°
2026-05-07 04:04 39.82237 -104.43063 9997 ft 321 kts 111°
2026-05-07 04:04 39.81374 -104.40475 10141 ft 304 kts 111°
2026-05-07 04:04 39.80515 -104.37891 10552 ft 322 kts 111°
2026-05-07 04:04 39.79569 -104.35153 11091 ft 340 kts 112°
2026-05-07 04:05 39.78579 -104.32327 11950 ft 346 kts 111°
2026-05-07 04:05 39.77588 -104.29463 12945 ft 350 kts 110°
2026-05-07 04:05 39.76578 -104.26565 13983 ft 355 kts 110°
2026-05-07 04:05 39.75549 -104.23628 14954 ft 359 kts 110°
2026-05-07 04:06 39.74513 -104.20662 15955 ft 363 kts 110°
2026-05-07 04:06 39.73463 -104.17656 16879 ft 368 kts 110°
2026-05-07 04:06 39.72401 -104.14614 17791 ft 372 kts 110°
2026-05-07 04:06 39.71317 -104.11539 18682 ft 376 kts 110°
2026-05-07 04:07 39.70217 -104.08437 19497 ft 381 kts 110°
2026-05-07 04:07 39.69104 -104.05294 20319 ft 385 kts 110°
2026-05-07 04:07 39.67976 -104.02114 21101 ft 390 kts 110°
2026-05-07 04:07 39.66850 -103.98944 21819 ft 394 kts 110°
2026-05-07 04:08 39.65697 -103.95699 22522 ft 398 kts 110°
2026-05-07 04:08 39.64486 -103.92441 23215 ft 404 kts 113°
2026-05-07 04:08 39.63143 -103.89213 23888 ft 409 kts 114°
2026-05-07 04:08 39.61774 -103.85968 24492 ft 412 kts 114°
2026-05-07 04:09 39.60404 -103.82680 25096 ft 416 kts 113°
2026-05-07 04:09 39.59097 -103.79326 25664 ft 417 kts 108°
2026-05-07 04:09 39.58035 -103.75831 26240 ft 418 kts 105°
2026-05-07 04:09 39.57055 -103.72268 26801 ft 421 kts 104°
2026-05-07 04:10 39.56065 -103.68675 27344 ft 425 kts 104°
2026-05-07 04:10 39.55055 -103.65055 27875 ft 429 kts 105°
2026-05-07 04:10 39.54030 -103.61412 28389 ft 433 kts 105°
2026-05-07 04:10 39.52991 -103.57737 28894 ft 436 kts 105°
2026-05-07 04:11 39.51941 -103.54035 29386 ft 439 kts 105°
2026-05-07 04:11 39.50882 -103.50309 29859 ft 443 kts 105°
2026-05-07 04:11 39.49812 -103.46551 30341 ft 446 kts 105°
2026-05-07 04:11 39.48734 -103.42772 30731 ft 449 kts 105°
2026-05-07 04:12 39.47648 -103.38967 31093 ft 452 kts 105°
2026-05-07 04:12 39.46556 -103.35147 31488 ft 454 kts 106°
2026-05-07 04:12 39.45457 -103.31305 31840 ft 457 kts 106°
2026-05-07 04:12 39.44348 -103.27439 32194 ft 459 kts 106°
2026-05-07 04:13 39.43234 -103.23559 32544 ft 462 kts 106°
2026-05-07 04:13 39.42115 -103.19667 33004 ft 460 kts 106°
2026-05-07 04:13 39.40996 -103.15781 33165 ft 466 kts 107°
2026-05-07 04:14 39.38691 -103.07781 33067 ft 482 kts 107°
2026-05-07 04:14 39.36336 -102.99646 33062 ft 484 kts 107°
2026-05-07 04:15 39.33703 -102.91621 33067 ft 488 kts 113°
2026-05-07 04:15 39.30630 -102.83808 33047 ft 487 kts 114°
2026-05-07 04:15 39.29097 -102.79924 33299 ft 485 kts 114°
2026-05-07 04:16 39.27561 -102.76021 33204 ft 487 kts 114°
2026-05-07 04:16 39.25009 -102.69539 33194 ft 487 kts 114°
2026-05-07 04:17 39.21937 -102.61746 33177 ft 488 kts 114°
2026-05-07 04:17 39.18859 -102.53955 33177 ft 488 kts 114°
2026-05-07 04:18 39.15774 -102.46167 33165 ft 488 kts 114°
2026-05-07 04:18 39.12684 -102.38395 33158 ft 486 kts 114°
2026-05-07 04:19 39.09583 -102.30675 33171 ft 486 kts 114°
2026-05-07 04:19 39.06477 -102.22957 33171 ft 486 kts 114°
2026-05-07 04:20 39.03364 -102.15238 33183 ft 486 kts 115°
2026-05-07 04:20 39.00250 -102.07534 33196 ft 486 kts 115°
2026-05-07 04:21 38.95584 -101.96027 33185 ft 485 kts 115°
2026-05-07 04:21 38.92460 -101.88347 33189 ft 485 kts 115°
2026-05-07 04:22 38.89330 -101.80671 33188 ft 485 kts 115°
2026-05-07 04:22 38.86161 -101.73016 33187 ft 487 kts 119°
2026-05-07 04:23 38.84036 -101.69630 33189 ft 492 kts 136°
2026-05-07 04:23 38.81237 -101.67111 33266 ft 493 kts 149°
2026-05-07 04:23 38.75264 -101.62754 33172 ft 493 kts 151°
2026-05-07 04:24 38.69312 -101.58367 33187 ft 494 kts 150°
2026-05-07 04:24 38.63374 -101.53940 33199 ft 494 kts 150°
2026-05-07 04:25 38.57436 -101.49516 33203 ft 494 kts 150°
2026-05-07 04:25 38.51490 -101.45091 33203 ft 496 kts 150°
2026-05-07 04:26 38.45535 -101.40672 33210 ft 495 kts 151°
2026-05-07 04:26 38.39578 -101.36259 33210 ft 495 kts 151°
2026-05-07 04:27 38.33621 -101.31854 33193 ft 495 kts 152°
2026-05-07 04:27 38.27683 -101.27467 33212 ft 493 kts 152°
2026-05-07 04:28 38.21747 -101.23097 33214 ft 493 kts 152°
2026-05-07 04:28 38.15805 -101.18729 33215 ft 493 kts 152°
2026-05-07 04:29 38.09917 -101.14405 33236 ft 488 kts 153°
2026-05-07 04:29 38.04026 -101.10091 33223 ft 489 kts 153°
2026-05-07 04:30 37.98127 -101.05779 33227 ft 490 kts 153°
2026-05-07 04:30 37.92224 -101.01471 33222 ft 490 kts 153°
2026-05-07 04:31 37.86321 -100.97172 33211 ft 489 kts 153°
2026-05-07 04:31 37.80421 -100.92882 33210 ft 489 kts 153°
2026-05-07 04:32 37.74515 -100.88596 33216 ft 489 kts 153°
2026-05-07 04:32 37.68611 -100.84320 33212 ft 489 kts 154°
2026-05-07 04:33 37.62715 -100.80057 33230 ft 488 kts 155°
2026-05-07 04:33 37.56819 -100.75803 33237 ft 488 kts 155°
2026-05-07 04:34 37.50920 -100.71555 33240 ft 488 kts 155°
2026-05-07 04:34 37.45066 -100.67343 33258 ft 485 kts 156°
2026-05-07 04:35 37.39204 -100.63134 33245 ft 485 kts 156°
2026-05-07 04:35 37.33335 -100.58932 33248 ft 485 kts 156°
2026-05-07 04:36 37.27468 -100.54739 33241 ft 485 kts 157°
2026-05-07 04:36 37.21618 -100.50560 33254 ft 483 kts 158°
2026-05-07 04:37 37.15780 -100.46400 33243 ft 482 kts 158°
2026-05-07 04:37 37.09940 -100.42248 33236 ft 483 kts 158°
2026-05-07 04:38 37.04100 -100.38102 33234 ft 483 kts 158°
2026-05-07 04:38 36.98270 -100.33966 33232 ft 481 kts 159°
2026-05-07 04:39 36.92451 -100.29852 33235 ft 481 kts 159°
2026-05-07 04:39 36.86626 -100.25740 33225 ft 481 kts 159°
2026-05-07 04:40 36.80803 -100.21635 33223 ft 481 kts 159°
2026-05-07 04:40 36.75002 -100.17549 33220 ft 478 kts 161°
2026-05-07 04:41 36.69212 -100.13485 33226 ft 478 kts 161°
2026-05-07 04:41 36.63457 -100.09449 33214 ft 478 kts 161°
2026-05-07 04:42 36.57667 -100.05395 33214 ft 478 kts 161°
2026-05-07 04:42 36.51870 -100.01343 33206 ft 478 kts 162°
2026-05-07 04:43 36.46078 -99.97303 33212 ft 477 kts 162°
2026-05-07 04:43 36.40285 -99.93268 33212 ft 478 kts 162°
2026-05-07 04:44 36.34488 -99.89237 33214 ft 478 kts 162°
2026-05-07 04:44 36.28698 -99.85212 33205 ft 477 kts 164°
2026-05-07 04:45 36.22910 -99.81196 33255 ft 475 kts 165°
2026-05-07 04:45 36.20031 -99.79199 33426 ft 474 kts 165°
2026-05-07 04:45 36.17155 -99.77215 33773 ft 472 kts 165°
2026-05-07 04:46 36.14289 -99.75263 34267 ft 468 kts 166°
2026-05-07 04:46 36.11437 -99.73351 34647 ft 465 kts 166°
2026-05-07 04:46 36.08584 -99.71466 34776 ft 464 kts 167°
2026-05-07 04:46 36.07884 -99.71006 34786 ft 464 kts 167°
2026-05-07 04:47 36.04858 -99.69029 34622 ft 466 kts 167°
2026-05-07 04:48 36.01980 -99.67168 34080 ft 469 kts 168°
2026-05-07 04:48 35.99072 -99.65305 33087 ft 472 kts 168°
2026-05-07 04:48 35.96144 -99.63449 31943 ft 474 kts 168°
2026-05-07 04:48 35.93204 -99.61620 30901 ft 472 kts 168°
2026-05-07 04:49 35.90275 -99.59839 30113 ft 466 kts 169°
2026-05-07 04:49 35.87363 -99.58117 29736 ft 463 kts 169°
2026-05-07 04:49 35.84456 -99.56462 30430 ft 452 kts 171°
2026-05-07 04:49 35.81725 -99.54920 31590 ft 421 kts 171°
2026-05-07 04:50 35.79150 -99.52922 31450 ft 454 kts 156°
2026-05-07 04:50 35.76756 -99.50397 31207 ft 449 kts 156°
2026-05-07 04:50 35.74424 -99.47923 30972 ft 456 kts 150°
2026-05-07 04:50 35.72403 -99.44767 30726 ft 488 kts 132°
2026-05-07 04:51 35.71161 -99.40754 30503 ft 519 kts 110°
2026-05-07 04:51 35.70797 -99.36293 30549 ft 529 kts 97°
2026-05-07 04:51 35.70738 -99.31714 30090 ft 539 kts 96°
2026-05-07 04:51 35.70644 -99.27159 30100 ft 529 kts 98°
2026-05-07 04:52 35.70473 -99.22612 29355 ft 534 kts 99°
2026-05-07 04:52 35.70258 -99.18067 28105 ft 526 kts 99°
2026-05-07 04:52 35.70035 -99.13639 26831 ft 512 kts 98°
2026-05-07 04:52 35.69810 -99.09378 26255 ft 491 kts 98°
2026-05-07 04:53 35.69578 -99.05214 25559 ft 486 kts 98°
2026-05-07 04:53 35.69344 -99.01086 24906 ft 480 kts 98°
2026-05-07 04:53 35.69114 -98.97023 24284 ft 473 kts 97°
2026-05-07 04:53 35.68886 -98.93011 23630 ft 467 kts 97°
2026-05-07 04:54 35.68660 -98.89061 23038 ft 457 kts 97°
2026-05-07 04:54 35.68438 -98.85199 22433 ft 449 kts 96°
2026-05-07 04:54 35.68218 -98.81412 21839 ft 440 kts 96°
2026-05-07 04:54 35.67999 -98.77686 21277 ft 433 kts 96°
2026-05-07 04:55 35.67783 -98.74028 20712 ft 426 kts 96°
2026-05-07 04:55 35.67569 -98.70420 20159 ft 420 kts 96°
2026-05-07 04:55 35.67355 -98.66853 19617 ft 416 kts 95°
2026-05-07 04:55 35.67143 -98.63326 19061 ft 412 kts 95°
2026-05-07 04:56 35.66931 -98.59835 18511 ft 408 kts 95°
2026-05-07 04:56 35.66721 -98.56380 17961 ft 402 kts 95°
2026-05-07 04:56 35.66512 -98.52970 17430 ft 399 kts 95°
2026-05-07 04:56 35.66302 -98.49569 16827 ft 398 kts 95°
2026-05-07 04:57 35.66090 -98.46164 16193 ft 397 kts 95°
2026-05-07 04:57 35.65881 -98.42805 15646 ft 392 kts 95°
2026-05-07 04:57 35.65672 -98.39484 15130 ft 388 kts 95°
2026-05-07 04:57 35.65335 -98.36209 14632 ft 383 kts 104°
2026-05-07 04:58 35.64664 -98.33075 14137 ft 376 kts 108°
2026-05-07 04:58 35.63957 -98.30000 13616 ft 371 kts 107°
2026-05-07 04:58 35.63306 -98.26967 13156 ft 364 kts 106°
2026-05-07 04:58 35.62693 -98.23969 12666 ft 359 kts 105°
2026-05-07 04:59 35.62103 -98.21010 12199 ft 354 kts 105°
2026-05-07 04:59 35.61529 -98.18098 11735 ft 349 kts 104°
2026-05-07 04:59 35.60988 -98.15208 11277 ft 345 kts 103°
2026-05-07 04:59 35.60468 -98.12350 10825 ft 341 kts 103°
2026-05-07 05:00 35.59950 -98.09523 10381 ft 337 kts 103°
2026-05-07 05:00 35.59436 -98.06728 9914 ft 334 kts 103°
2026-05-07 05:00 35.58924 -98.03969 9491 ft 328 kts 103°
2026-05-07 05:00 35.58424 -98.01277 9038 ft 316 kts 103°
2026-05-07 05:01 35.57945 -97.98693 8667 ft 307 kts 103°
2026-05-07 05:01 35.57463 -97.96157 8241 ft 304 kts 102°
2026-05-07 05:01 35.56977 -97.93643 7846 ft 301 kts 102°
2026-05-07 05:01 35.56499 -97.91160 7448 ft 296 kts 102°
2026-05-07 05:02 35.56034 -97.88751 7069 ft 292 kts 102°
2026-05-07 05:02 35.55570 -97.86340 6684 ft 288 kts 102°
2026-05-07 05:02 35.55112 -97.83964 6288 ft 283 kts 102°
2026-05-07 05:02 35.54663 -97.81632 5928 ft 278 kts 102°
2026-05-07 05:03 35.54223 -97.79349 5558 ft 273 kts 101°
2026-05-07 05:03 35.53796 -97.77145 5177 ft 256 kts 101°
2026-05-07 05:03 35.53397 -97.75099 4879 ft 238 kts 102°
2026-05-07 05:03 35.52935 -97.73213 4601 ft 223 kts 106°
2026-05-07 05:04 35.52445 -97.71419 4396 ft 220 kts 106°
2026-05-07 05:04 35.51970 -97.69642 4177 ft 219 kts 105°
2026-05-07 05:04 35.51471 -97.67882 3925 ft 218 kts 110°
2026-05-07 05:04 35.50830 -97.66205 3689 ft 217 kts 113°
2026-05-07 05:05 35.50147 -97.64544 3419 ft 217 kts 116°
2026-05-07 05:05 35.49335 -97.63087 3237 ft 198 kts 127°
2026-05-07 05:05 35.48344 -97.61955 2848 ft 193 kts 143°
2026-05-07 05:05 35.47207 -97.61183 2518 ft 180 kts 147°
2026-05-07 05:06 35.46129 -97.60652 2436 ft 153 kts 161°
2026-05-07 05:06 35.45450 -97.60551 2354 ft 146 kts 174°
2026-05-07 05:06 35.44457 -97.60586 2099 ft 140 kts 178°
2026-05-07 05:06 35.43473 -97.60585 1867 ft 142 kts 177°
2026-05-07 05:07 35.42473 -97.60566 1773 ft 139 kts 180°
2026-05-07 05:07 35.41554 -97.60576 1581 ft 127 kts 180°
2026-05-07 05:07 35.40694 -97.60572 1369 ft 122 kts 179°
2026-05-07 05:07 35.39884 -97.60571 1288 ft 105 kts 180°
2026-05-07 05:08 35.39306 -97.60576 1291 ft 61 kts 179°
2026-05-07 05:08 35.39059 -97.60568 1294 ft 16 kts 168°
2026-05-07 05:08 35.38984 -97.60499 1296 ft 11 kts 115°
2026-05-07 05:08 35.38977 -97.60398 1294 ft 11 kts 84°
2026-05-07 05:09 35.39038 -97.60349 1294 ft 10 kts 355°
2026-05-07 05:09 35.39117 -97.60361 1294 ft 13 kts 354°
2026-05-07 05:09 35.39218 -97.60371 1292 ft 15 kts 358°
2026-05-07 05:09 35.39341 -97.60378 1288 ft 20 kts 358°
2026-05-07 05:10 35.39493 -97.60387 1286 ft 20 kts 357°
2026-05-07 05:10 35.39605 -97.60391 1286 ft 13 kts 20°
2026-05-07 05:10 35.39605 -97.60311 1288 ft 11 kts 136°
2026-05-07 05:10 35.39550 -97.60233 1288 ft 13 kts 102°
2026-05-07 05:11 35.39575 -97.60154 1289 ft 0 kts 64°
2026-05-07 05:11 35.39581 -97.60139 1290 ft 5 kts 64°
2026-05-07 05:11 35.39603 -97.60082 1292 ft 8 kts 65°
2026-05-07 05:11 35.39625 -97.60024 1294 ft 9 kts 66°
2026-05-07 05:12 35.39629 -97.59960 1295 ft 2 kts 117°
2026-05-07 05:12 35.39610 -97.59949 1295 ft 4 kts 175°
2026-05-07 05:12 35.39579 -97.59951 1295 ft 3 kts 180°
2026-05-07 05:12 35.39564 -97.59951 1295 ft 1 kts 180°
2026-05-07 05:13 35.39562 -97.59951 1295 ft 0 kts 180°